Year,Month,Day,Hour,Minute,Value (Times are PST for temperature in C)
2005,05,27,00,00,17.90
2005,05,27,00,01,17.90
2005,05,27,00,02,18.00
2005,05,27,00,03,18.10
2005,05,27,00,04,18.10
2005,05,27,00,05,18.20
2005,05,27,00,06,18.10
2005,05,27,00,07,18.20
2005,05,27,00,08,18.20
2005,05,27,00,09,18.10
2005,05,27,00,10,18.10
2005,05,27,00,11,18.00
2005,05,27,00,12,17.90
2005,05,27,00,13,17.90
2005,05,27,00,14,17.90
2005,05,27,00,15,17.90
2005,05,27,00,17,17.90
2005,05,27,00,18,17.90
2005,05,27,00,19,17.90
2005,05,27,00,23,17.90
2005,05,27,00,27,18.20
2005,05,27,00,29,18.20
2005,05,27,00,31,18.20
2005,05,27,00,32,18.10
2005,05,27,00,34,18.10
2005,05,27,00,35,18.10
2005,05,27,00,36,18.10
2005,05,27,00,37,18.10
2005,05,27,00,38,18.10
2005,05,27,00,39,18.10
2005,05,27,00,40,18.00
2005,05,27,00,41,17.90
2005,05,27,00,42,17.80
2005,05,27,00,43,17.70
2005,05,27,00,44,17.50
2005,05,27,00,45,17.50
2005,05,27,00,46,17.40
2005,05,27,00,47,17.30
2005,05,27,00,48,17.10
2005,05,27,00,49,17.10
2005,05,27,00,50,17.00
2005,05,27,00,51,16.90
2005,05,27,00,52,16.80
2005,05,27,00,53,16.80
2005,05,27,00,54,16.70
2005,05,27,00,55,16.70
2005,05,27,00,56,16.70
2005,05,27,00,57,16.70
2005,05,27,00,58,16.70
2005,05,27,00,59,16.70
2005,05,27,01,00,16.70
2005,05,27,01,01,16.70
2005,05,27,01,02,16.70
2005,05,27,01,03,16.80
2005,05,27,01,04,16.80
2005,05,27,01,05,16.80
2005,05,27,01,06,16.80
2005,05,27,01,07,16.80
2005,05,27,01,08,16.70
2005,05,27,01,09,16.70
2005,05,27,01,10,16.70
2005,05,27,01,11,16.70
2005,05,27,01,12,16.70
2005,05,27,01,13,16.80
2005,05,27,01,14,16.80
2005,05,27,01,15,16.80
2005,05,27,01,16,16.80
2005,05,27,01,17,16.70
2005,05,27,01,18,16.70
2005,05,27,01,19,16.60
2005,05,27,01,20,16.50
2005,05,27,01,21,16.40
2005,05,27,01,22,16.30
2005,05,27,01,23,16.30
2005,05,27,01,24,16.30
2005,05,27,01,25,16.30
2005,05,27,01,26,16.30
2005,05,27,01,27,16.40
2005,05,27,01,28,16.40
2005,05,27,01,29,16.40
2005,05,27,01,30,16.40
2005,05,27,01,31,16.50
2005,05,27,01,32,16.60
2005,05,27,01,33,16.60
2005,05,27,01,34,16.70
2005,05,27,01,35,16.70
2005,05,27,01,36,16.60
2005,05,27,01,37,16.60
2005,05,27,01,38,16.60
2005,05,27,01,39,16.50
2005,05,27,01,40,16.40
2005,05,27,01,41,16.40
2005,05,27,01,42,16.40
2005,05,27,01,43,16.40
2005,05,27,01,44,16.40
2005,05,27,01,45,16.40
2005,05,27,01,46,16.30
2005,05,27,01,47,16.20
2005,05,27,01,48,16.10
2005,05,27,01,49,16.10
2005,05,27,01,50,16.10
2005,05,27,01,51,16.10
2005,05,27,01,52,16.10
2005,05,27,01,53,16.10
2005,05,27,01,54,16.10
2005,05,27,01,55,16.10
2005,05,27,01,56,16.10
2005,05,27,01,57,16.10
2005,05,27,01,58,16.20
2005,05,27,01,59,16.20
2005,05,27,02,00,16.20
2005,05,27,02,01,16.20
2005,05,27,02,02,16.30
2005,05,27,02,03,16.20
2005,05,27,02,04,16.20
2005,05,27,02,05,16.10
2005,05,27,02,06,16.10
2005,05,27,02,07,16.10
2005,05,27,02,08,16.20
2005,05,27,02,09,16.20
2005,05,27,02,10,16.30
2005,05,27,02,11,16.30
2005,05,27,02,12,16.30
2005,05,27,02,13,16.30
2005,05,27,02,14,16.40
2005,05,27,02,15,16.30
2005,05,27,02,16,16.20
2005,05,27,02,17,16.10
2005,05,27,02,18,16.10
2005,05,27,02,19,16.10
2005,05,27,02,20,16.10
2005,05,27,02,21,16.10
2005,05,27,02,22,16.10
2005,05,27,02,23,16.20
2005,05,27,02,24,16.20
2005,05,27,02,25,16.20
2005,05,27,02,26,16.20
2005,05,27,02,27,16.20
2005,05,27,02,28,16.30
2005,05,27,02,29,16.40
2005,05,27,02,30,16.60
2005,05,27,02,31,16.70
2005,05,27,02,32,16.80
2005,05,27,02,33,16.90
2005,05,27,02,34,16.90
2005,05,27,02,35,16.90
2005,05,27,02,36,16.90
2005,05,27,02,37,16.90
2005,05,27,02,38,16.90
2005,05,27,02,39,16.80
2005,05,27,02,40,16.80
2005,05,27,02,41,16.90
2005,05,27,02,42,16.90
2005,05,27,02,43,16.90
2005,05,27,02,44,17.00
2005,05,27,02,45,17.00
2005,05,27,02,46,17.10
2005,05,27,02,47,17.20
2005,05,27,02,48,17.30
2005,05,27,02,49,17.40
2005,05,27,02,50,17.40
2005,05,27,02,51,17.50
2005,05,27,02,52,17.50
2005,05,27,02,53,17.50
2005,05,27,02,54,17.50
2005,05,27,02,55,17.50
2005,05,27,02,56,17.50
2005,05,27,02,57,17.50
2005,05,27,02,58,17.50
2005,05,27,02,59,17.50
2005,05,27,03,00,17.50
2005,05,27,03,01,17.50
2005,05,27,03,02,17.50
2005,05,27,03,03,17.50
2005,05,27,03,04,17.50
2005,05,27,03,05,17.50
2005,05,27,03,06,17.50
2005,05,27,03,07,17.50
2005,05,27,03,08,17.50
2005,05,27,03,09,17.40
2005,05,27,03,10,17.40
2005,05,27,03,11,17.40
2005,05,27,03,12,17.40
2005,05,27,03,13,17.30
2005,05,27,03,14,17.30
2005,05,27,03,15,17.30
2005,05,27,03,16,17.30
2005,05,27,03,17,17.30
2005,05,27,03,18,17.40
2005,05,27,03,19,17.40
2005,05,27,03,20,17.40
2005,05,27,03,21,17.40
2005,05,27,03,22,17.40
2005,05,27,03,23,17.40
2005,05,27,03,24,17.40
2005,05,27,03,25,17.40
2005,05,27,03,26,17.40
2005,05,27,03,27,17.40
2005,05,27,03,28,17.50
2005,05,27,03,29,17.50
2005,05,27,03,30,17.50
2005,05,27,03,31,17.40
2005,05,27,03,32,17.40
2005,05,27,03,33,17.40
2005,05,27,03,34,17.40
2005,05,27,03,35,17.40
2005,05,27,03,36,17.40
2005,05,27,03,37,17.40
2005,05,27,03,38,17.30
2005,05,27,03,39,17.30
2005,05,27,03,40,17.30
2005,05,27,03,41,17.30
2005,05,27,03,42,17.30
2005,05,27,03,43,17.30
2005,05,27,03,44,17.30
2005,05,27,03,45,17.20
2005,05,27,03,46,17.20
2005,05,27,03,47,17.20
2005,05,27,03,48,17.20
2005,05,27,03,49,17.10
2005,05,27,03,50,17.10
2005,05,27,03,51,17.10
2005,05,27,03,52,17.10
2005,05,27,03,53,17.10
2005,05,27,03,54,17.10
2005,05,27,03,55,17.10
2005,05,27,03,56,17.10
2005,05,27,03,57,17.10
2005,05,27,03,58,17.10
2005,05,27,03,59,17.10
2005,05,27,04,00,17.10
2005,05,27,04,01,17.10
2005,05,27,04,02,17.10
2005,05,27,04,03,17.10
2005,05,27,04,04,17.10
2005,05,27,04,05,17.20
2005,05,27,04,06,17.20
2005,05,27,04,07,17.20
2005,05,27,04,08,17.20
2005,05,27,04,09,17.20
2005,05,27,04,10,17.20
2005,05,27,04,11,17.20
2005,05,27,04,12,17.30
2005,05,27,04,13,17.30
2005,05,27,04,14,17.30
2005,05,27,04,15,17.30
2005,05,27,04,16,17.30
2005,05,27,04,17,17.30
2005,05,27,04,18,17.30
2005,05,27,04,19,17.30
2005,05,27,04,20,17.30
2005,05,27,04,21,17.30
2005,05,27,04,22,17.30
2005,05,27,04,23,17.30
2005,05,27,04,24,17.30
2005,05,27,04,25,17.30
2005,05,27,04,26,17.30
2005,05,27,04,27,17.30
2005,05,27,04,28,17.30
2005,05,27,04,29,17.30
2005,05,27,04,30,17.30
2005,05,27,04,31,17.40
2005,05,27,04,32,17.40
2005,05,27,04,33,17.40
2005,05,27,04,34,17.50
2005,05,27,04,35,17.50
2005,05,27,04,36,17.50
2005,05,27,04,37,17.50
2005,05,27,04,38,17.50
2005,05,27,04,39,17.50
2005,05,27,04,40,17.40
2005,05,27,04,41,17.40
2005,05,27,04,42,17.40
2005,05,27,04,43,17.40
2005,05,27,04,44,17.40
2005,05,27,04,45,17.40
2005,05,27,04,46,17.40
2005,05,27,04,47,17.40
2005,05,27,04,48,17.40
2005,05,27,04,49,17.40
2005,05,27,04,50,17.40
2005,05,27,04,51,17.40
2005,05,27,04,52,17.40
2005,05,27,04,53,17.40
2005,05,27,04,54,17.40
2005,05,27,04,55,17.40
2005,05,27,04,56,17.40
2005,05,27,04,57,17.40
2005,05,27,04,58,17.40
2005,05,27,04,59,17.30
2005,05,27,05,00,17.30
2005,05,27,05,01,17.30
2005,05,27,05,02,17.20
2005,05,27,05,03,17.20
2005,05,27,05,04,17.20
2005,05,27,05,05,17.10
2005,05,27,05,06,17.10
2005,05,27,05,07,17.00
2005,05,27,05,08,17.00
2005,05,27,05,09,17.00
2005,05,27,05,10,17.00
2005,05,27,05,11,17.00
2005,05,27,05,12,17.00
2005,05,27,05,13,17.00
2005,05,27,05,14,17.00
2005,05,27,05,15,17.00
2005,05,27,05,16,17.00
2005,05,27,05,17,17.00
2005,05,27,05,18,17.00
2005,05,27,05,19,17.10
2005,05,27,05,20,17.10
2005,05,27,05,21,17.10
2005,05,27,05,22,17.10
2005,05,27,05,23,17.10
2005,05,27,05,24,17.10
2005,05,27,05,25,17.10
2005,05,27,05,26,17.10
2005,05,27,05,27,17.10
2005,05,27,05,28,17.10
2005,05,27,05,29,17.10
2005,05,27,05,30,17.10
2005,05,27,05,31,17.20
2005,05,27,05,32,17.20
2005,05,27,05,33,17.30
2005,05,27,05,34,17.30
2005,05,27,05,35,17.30
2005,05,27,05,36,17.40
2005,05,27,05,37,17.40
2005,05,27,05,38,17.40
2005,05,27,05,39,17.40
2005,05,27,05,40,17.30
2005,05,27,05,41,17.30
2005,05,27,05,42,17.30
2005,05,27,05,43,17.30
2005,05,27,05,44,17.20
2005,05,27,05,45,17.20
2005,05,27,05,46,17.20
2005,05,27,05,47,17.20
2005,05,27,05,48,17.20
2005,05,27,05,49,17.20
2005,05,27,05,50,17.30
2005,05,27,05,51,17.30
2005,05,27,05,52,17.30
2005,05,27,05,53,17.30
2005,05,27,05,54,17.30
2005,05,27,05,55,17.30
2005,05,27,05,56,17.30
2005,05,27,05,57,17.30
2005,05,27,05,58,17.30
2005,05,27,05,59,17.20
2005,05,27,06,00,17.10
2005,05,27,06,01,16.90
2005,05,27,06,02,16.80
2005,05,27,06,03,16.60
2005,05,27,06,04,16.30
2005,05,27,06,05,16.20
2005,05,27,06,06,16.00
2005,05,27,06,07,15.80
2005,05,27,06,08,15.80
2005,05,27,06,09,15.80
2005,05,27,06,10,15.70
2005,05,27,06,11,15.70
2005,05,27,06,12,15.70
2005,05,27,06,13,15.70
2005,05,27,06,14,15.60
2005,05,27,06,15,15.60
2005,05,27,06,16,15.70
2005,05,27,06,17,15.70
2005,05,27,06,18,15.80
2005,05,27,06,19,15.80
2005,05,27,06,20,15.80
2005,05,27,06,21,15.80
2005,05,27,06,22,15.80
2005,05,27,06,23,16.00
2005,05,27,06,24,16.00
2005,05,27,06,25,16.10
2005,05,27,06,26,16.20
2005,05,27,06,27,16.20
2005,05,27,06,28,16.30
2005,05,27,06,29,16.40
2005,05,27,06,30,16.40
2005,05,27,06,31,16.50
2005,05,27,06,32,16.60
2005,05,27,06,33,16.70
2005,05,27,06,34,16.80
2005,05,27,06,35,16.90
2005,05,27,06,36,17.00
2005,05,27,06,37,17.00
2005,05,27,06,38,17.10
2005,05,27,06,39,17.30
2005,05,27,06,40,17.30
2005,05,27,06,41,17.30
2005,05,27,06,42,17.30
2005,05,27,06,43,17.40
2005,05,27,06,44,17.50
2005,05,27,06,45,17.50
2005,05,27,06,46,17.60
2005,05,27,06,47,17.70
2005,05,27,06,48,17.80
2005,05,27,06,49,17.90
2005,05,27,06,50,17.90
2005,05,27,06,51,18.10
2005,05,27,06,52,18.20
2005,05,27,06,53,18.20
2005,05,27,06,54,18.30
2005,05,27,06,55,18.40
2005,05,27,06,56,18.50
2005,05,27,06,57,18.50
2005,05,27,06,58,18.60
2005,05,27,06,59,18.70
2005,05,27,07,00,18.70
2005,05,27,07,01,18.70
2005,05,27,07,02,18.80
2005,05,27,07,03,18.80
2005,05,27,07,04,18.80
2005,05,27,07,05,18.90
2005,05,27,07,06,18.90
2005,05,27,07,07,18.90
2005,05,27,07,08,18.90
2005,05,27,07,09,18.90
2005,05,27,07,10,18.90
2005,05,27,07,11,18.90
2005,05,27,07,12,19.00
2005,05,27,07,13,19.10
2005,05,27,07,14,19.10
2005,05,27,07,15,19.10
2005,05,27,07,16,19.10
2005,05,27,07,17,19.10
2005,05,27,07,18,19.10
2005,05,27,07,19,19.10
2005,05,27,07,20,19.10
2005,05,27,07,21,19.10
2005,05,27,07,22,19.10
2005,05,27,07,23,19.10
2005,05,27,07,24,19.10
2005,05,27,07,25,19.10
2005,05,27,07,26,19.10
2005,05,27,07,27,19.10
2005,05,27,07,28,19.10
2005,05,27,07,29,19.10
2005,05,27,07,30,19.10
2005,05,27,07,31,19.10
2005,05,27,07,32,19.10
2005,05,27,07,33,19.10
2005,05,27,07,34,19.10
2005,05,27,07,35,19.10
2005,05,27,07,36,19.10
2005,05,27,07,37,19.10
2005,05,27,07,38,19.10
2005,05,27,07,39,19.10
2005,05,27,07,40,19.10
2005,05,27,07,41,19.10
2005,05,27,07,42,19.10
2005,05,27,07,43,19.10
2005,05,27,07,44,19.10
2005,05,27,07,45,19.10
2005,05,27,07,46,19.10
2005,05,27,07,47,19.10
2005,05,27,07,48,19.10
2005,05,27,07,49,19.10
2005,05,27,07,50,19.10
2005,05,27,07,51,19.10
2005,05,27,07,52,19.10
2005,05,27,07,53,19.10
2005,05,27,07,54,19.10
2005,05,27,07,55,19.20
2005,05,27,07,56,19.20
2005,05,27,07,57,19.20
2005,05,27,07,58,19.30
2005,05,27,07,59,19.30
2005,05,27,08,00,19.30
2005,05,27,08,01,19.30
2005,05,27,08,02,19.30
2005,05,27,08,03,19.30
2005,05,27,08,04,19.40
2005,05,27,08,05,19.40
2005,05,27,08,06,19.40
2005,05,27,08,07,19.50
2005,05,27,08,08,19.50
2005,05,27,08,09,19.60
2005,05,27,08,10,19.60
2005,05,27,08,11,19.60
2005,05,27,08,12,19.60
2005,05,27,08,13,19.60
2005,05,27,08,14,19.60
2005,05,27,08,15,19.60
2005,05,27,08,16,19.60
2005,05,27,08,17,19.60
2005,05,27,08,18,19.70
2005,05,27,08,19,19.70
2005,05,27,08,20,19.70
2005,05,27,08,21,19.70
2005,05,27,08,22,19.80
2005,05,27,08,23,19.80
2005,05,27,08,24,19.80
2005,05,27,08,25,19.90
2005,05,27,08,26,19.90
2005,05,27,08,27,19.90
2005,05,27,08,28,20.00
2005,05,27,08,29,20.10
2005,05,27,08,30,20.10
2005,05,27,08,31,20.20
2005,05,27,08,32,20.20
2005,05,27,08,33,20.20
2005,05,27,08,34,20.20
2005,05,27,08,35,20.20
2005,05,27,08,36,20.20
2005,05,27,08,37,20.20
2005,05,27,08,38,20.20
2005,05,27,08,39,20.30
2005,05,27,08,40,20.30
2005,05,27,08,41,20.30
2005,05,27,08,42,20.40
2005,05,27,08,43,20.40
2005,05,27,08,44,20.30
2005,05,27,08,45,20.40
2005,05,27,08,46,20.40
2005,05,27,08,47,20.50
2005,05,27,08,48,20.50
2005,05,27,08,49,20.60
2005,05,27,08,50,20.60
2005,05,27,08,51,20.70
2005,05,27,08,52,20.70
2005,05,27,08,53,20.80
2005,05,27,08,54,20.80
2005,05,27,08,55,20.80
2005,05,27,08,56,20.90
2005,05,27,08,57,20.90
2005,05,27,08,58,20.90
2005,05,27,08,59,21.00
2005,05,27,09,00,21.00
2005,05,27,09,01,21.10
2005,05,27,09,02,21.20
2005,05,27,09,03,21.20
2005,05,27,09,04,21.30
2005,05,27,09,05,21.30
2005,05,27,09,06,21.30
2005,05,27,09,07,21.20
2005,05,27,09,08,21.20
2005,05,27,09,09,21.20
2005,05,27,09,10,21.20
2005,05,27,09,11,21.30
2005,05,27,09,12,21.30
2005,05,27,09,13,21.30
2005,05,27,09,14,21.30
2005,05,27,09,15,21.30
2005,05,27,09,16,21.20
2005,05,27,09,17,21.30
2005,05,27,09,18,21.30
2005,05,27,09,19,21.30
2005,05,27,09,20,21.30
2005,05,27,09,21,21.30
2005,05,27,09,22,21.30
2005,05,27,09,23,21.30
2005,05,27,09,24,21.30
2005,05,27,09,25,21.30
2005,05,27,09,26,21.30
2005,05,27,09,27,21.30
2005,05,27,09,28,21.30
2005,05,27,09,29,21.30
2005,05,27,09,30,21.40
2005,05,27,09,31,21.40
2005,05,27,09,32,21.50
2005,05,27,09,33,21.60
2005,05,27,09,34,21.60
2005,05,27,09,35,21.60
2005,05,27,09,36,21.60
2005,05,27,09,37,21.60
2005,05,27,09,38,21.70
2005,05,27,09,39,21.70
2005,05,27,09,40,21.60
2005,05,27,09,41,21.70
2005,05,27,09,42,21.70
2005,05,27,09,43,21.70
2005,05,27,09,44,21.80
2005,05,27,09,45,21.80
2005,05,27,09,46,21.90
2005,05,27,09,47,21.90
2005,05,27,09,48,22.00
2005,05,27,09,49,22.00
2005,05,27,09,50,22.10
2005,05,27,09,51,22.10
2005,05,27,09,52,22.20
2005,05,27,09,53,22.20
2005,05,27,09,54,22.20
2005,05,27,09,55,22.20
2005,05,27,09,56,22.20
2005,05,27,09,57,22.10
2005,05,27,09,58,22.10
2005,05,27,09,59,22.20
2005,05,27,10,00,22.20
2005,05,27,10,01,22.30
2005,05,27,10,02,22.30
2005,05,27,10,03,22.40
2005,05,27,10,04,22.40
2005,05,27,10,05,22.50
2005,05,27,10,06,22.50
2005,05,27,10,07,22.50
2005,05,27,10,08,22.50
2005,05,27,10,09,22.60
2005,05,27,10,10,22.60
2005,05,27,10,11,22.50
2005,05,27,10,12,22.50
2005,05,27,10,13,22.50
2005,05,27,10,14,22.50
2005,05,27,10,15,22.60
2005,05,27,10,16,22.60
2005,05,27,10,17,22.60
2005,05,27,10,18,22.60
2005,05,27,10,19,22.70
2005,05,27,10,20,22.70
2005,05,27,10,21,22.70
2005,05,27,10,22,22.80
2005,05,27,10,23,22.80
2005,05,27,10,24,22.90
2005,05,27,10,25,22.90
2005,05,27,10,26,22.80
2005,05,27,10,27,22.80
2005,05,27,10,28,22.80
2005,05,27,10,29,22.80
2005,05,27,10,30,22.80
2005,05,27,10,31,22.80
2005,05,27,10,32,22.80
2005,05,27,10,33,22.80
2005,05,27,10,34,22.80
2005,05,27,10,35,22.90
2005,05,27,10,36,23.10
2005,05,27,10,37,23.10
2005,05,27,10,38,23.20
2005,05,27,10,39,23.20
2005,05,27,10,40,23.30
2005,05,27,10,41,23.30
2005,05,27,10,42,23.30
2005,05,27,10,43,23.30
2005,05,27,10,44,23.20
2005,05,27,10,45,23.10
2005,05,27,10,46,23.10
2005,05,27,10,47,23.10
2005,05,27,10,48,23.10
2005,05,27,10,49,23.10
2005,05,27,10,50,23.10
2005,05,27,10,51,23.20
2005,05,27,10,52,23.30
2005,05,27,10,53,23.20
2005,05,27,10,54,23.20
2005,05,27,10,55,23.20
2005,05,27,10,56,23.20
2005,05,27,10,57,23.10
2005,05,27,10,58,23.10
2005,05,27,10,59,23.10
2005,05,27,11,00,23.10
2005,05,27,11,01,23.20
2005,05,27,11,02,23.20
2005,05,27,11,03,23.20
2005,05,27,11,04,23.20
2005,05,27,11,05,23.20
2005,05,27,11,06,23.20
2005,05,27,11,07,23.20
2005,05,27,11,08,23.20
2005,05,27,11,09,23.30
2005,05,27,11,10,23.30
2005,05,27,11,11,23.30
2005,05,27,11,12,23.30
2005,05,27,11,13,23.30
2005,05,27,11,14,23.30
2005,05,27,11,15,23.30
2005,05,27,11,16,23.30
2005,05,27,11,17,23.40
2005,05,27,11,18,23.50
2005,05,27,11,19,23.60
2005,05,27,11,20,23.60
2005,05,27,11,21,23.50
2005,05,27,11,22,23.50
2005,05,27,11,23,23.60
2005,05,27,11,24,23.60
2005,05,27,11,25,23.60
2005,05,27,11,26,23.60
2005,05,27,11,27,23.60
2005,05,27,11,28,23.60
2005,05,27,11,29,23.60
2005,05,27,11,30,23.70
2005,05,27,11,31,23.80
2005,05,27,11,32,23.80
2005,05,27,11,33,23.80
2005,05,27,11,34,23.70
2005,05,27,11,35,23.70
2005,05,27,11,36,23.70
2005,05,27,11,37,23.70
2005,05,27,11,38,23.80
2005,05,27,11,39,23.90
2005,05,27,11,40,23.90
2005,05,27,11,41,24.00
2005,05,27,11,42,24.10
2005,05,27,11,43,24.20
2005,05,27,11,44,24.30
2005,05,27,11,45,24.30
2005,05,27,11,46,24.30
2005,05,27,11,47,24.30
2005,05,27,11,48,24.20
2005,05,27,11,49,24.10
2005,05,27,11,50,24.10
2005,05,27,11,51,24.00
2005,05,27,11,52,24.00
2005,05,27,11,53,24.00
2005,05,27,11,54,24.00
2005,05,27,11,55,24.10
2005,05,27,11,56,24.10
2005,05,27,11,57,24.10
2005,05,27,11,58,24.20
2005,05,27,11,59,24.10
2005,05,27,12,00,24.10
2005,05,27,12,01,24.10
2005,05,27,12,02,24.10
2005,05,27,12,03,24.10
2005,05,27,12,04,24.20
2005,05,27,12,05,24.30
2005,05,27,12,06,24.40
2005,05,27,12,07,24.40
2005,05,27,12,08,24.30
2005,05,27,12,09,24.30
2005,05,27,12,10,24.30
2005,05,27,12,11,24.20
2005,05,27,12,12,24.20
2005,05,27,12,13,24.30
2005,05,27,12,14,24.30
2005,05,27,12,15,24.40
2005,05,27,12,16,24.40
2005,05,27,12,17,24.40
2005,05,27,12,18,24.40
2005,05,27,12,19,24.50
2005,05,27,12,20,24.60
2005,05,27,12,21,24.70
2005,05,27,12,22,24.70
2005,05,27,12,23,24.80
2005,05,27,12,24,24.90
2005,05,27,12,25,24.80
2005,05,27,12,26,24.80
2005,05,27,12,27,24.70
2005,05,27,12,28,24.70
2005,05,27,12,29,24.70
2005,05,27,12,30,24.70
2005,05,27,12,31,24.70
2005,05,27,12,32,24.50
2005,05,27,12,33,24.60
2005,05,27,12,34,24.50
2005,05,27,12,35,24.60
2005,05,27,12,36,24.60
2005,05,27,12,37,24.80
2005,05,27,12,38,24.90
2005,05,27,12,39,24.90
2005,05,27,12,40,24.90
2005,05,27,12,41,24.90
2005,05,27,12,42,24.90
2005,05,27,12,43,24.90
2005,05,27,12,44,24.80
2005,05,27,12,45,24.90
2005,05,27,12,46,24.90
2005,05,27,12,47,25.00
2005,05,27,12,48,25.10
2005,05,27,12,49,25.20
2005,05,27,12,50,25.10
2005,05,27,12,51,25.30
2005,05,27,12,52,25.20
2005,05,27,12,53,25.20
2005,05,27,12,54,25.20
2005,05,27,12,55,25.10
2005,05,27,12,56,25.10
2005,05,27,12,57,25.10
2005,05,27,12,58,25.10
2005,05,27,12,59,25.10
2005,05,27,13,00,25.20
2005,05,27,13,01,25.20
2005,05,27,13,02,25.30
2005,05,27,13,03,25.20
2005,05,27,13,04,25.10
2005,05,27,13,05,25.20
2005,05,27,13,06,25.30
2005,05,27,13,07,25.40
2005,05,27,13,08,25.30
2005,05,27,13,09,25.40
2005,05,27,13,10,25.40
2005,05,27,13,11,25.40
2005,05,27,13,12,25.40
2005,05,27,13,13,25.40
2005,05,27,13,14,25.50
2005,05,27,13,15,25.60
2005,05,27,13,16,25.60
2005,05,27,13,17,25.60
2005,05,27,13,18,25.50
2005,05,27,13,19,25.40
2005,05,27,13,20,25.50
2005,05,27,13,21,25.60
2005,05,27,13,22,25.70
2005,05,27,13,23,25.90
2005,05,27,13,24,25.90
2005,05,27,13,25,25.90
2005,05,27,13,26,25.90
2005,05,27,13,27,25.90
2005,05,27,13,28,25.80
2005,05,27,13,29,25.90
2005,05,27,13,30,25.90
2005,05,27,13,31,26.00
2005,05,27,13,32,26.10
2005,05,27,13,33,26.20
2005,05,27,13,34,26.20
2005,05,27,13,35,26.20
2005,05,27,13,36,26.20
2005,05,27,13,37,26.20
2005,05,27,13,38,26.20
2005,05,27,13,39,26.20
2005,05,27,13,40,26.30
2005,05,27,13,41,26.40
2005,05,27,13,42,26.20
2005,05,27,13,43,26.10
2005,05,27,13,44,26.10
2005,05,27,13,45,26.00
2005,05,27,13,46,26.00
2005,05,27,13,47,26.00
2005,05,27,13,48,25.90
2005,05,27,13,49,25.90
2005,05,27,13,50,25.80
2005,05,27,13,51,25.90
2005,05,27,13,52,26.00
2005,05,27,13,53,26.10
2005,05,27,13,54,26.10
2005,05,27,13,55,26.10
2005,05,27,13,56,26.20
2005,05,27,13,57,26.20
2005,05,27,13,58,26.20
2005,05,27,13,59,26.20
2005,05,27,14,00,26.30
2005,05,27,14,01,26.30
2005,05,27,14,02,26.30
2005,05,27,14,03,26.50
2005,05,27,14,04,26.60
2005,05,27,14,05,26.60
2005,05,27,14,06,26.60
2005,05,27,14,07,26.70
2005,05,27,14,08,26.80
2005,05,27,14,09,26.80
2005,05,27,14,10,26.80
2005,05,27,14,11,26.90
2005,05,27,14,12,26.90
2005,05,27,14,13,26.90
2005,05,27,14,14,26.80
2005,05,27,14,15,26.80
2005,05,27,14,16,26.90
2005,05,27,14,17,27.00
2005,05,27,14,18,26.90
2005,05,27,14,19,26.90
2005,05,27,14,20,26.70
2005,05,27,14,21,26.60
2005,05,27,14,22,26.70
2005,05,27,14,23,26.70
2005,05,27,14,24,26.70
2005,05,27,14,25,26.70
2005,05,27,14,26,26.80
2005,05,27,14,27,26.90
2005,05,27,14,28,26.90
2005,05,27,14,29,26.90
2005,05,27,14,30,26.80
2005,05,27,14,31,26.80
2005,05,27,14,32,26.90
2005,05,27,14,33,26.90
2005,05,27,14,34,26.90
2005,05,27,14,35,26.80
2005,05,27,14,36,26.90
2005,05,27,14,37,27.00
2005,05,27,14,38,27.10
2005,05,27,14,39,27.10
2005,05,27,14,40,27.10
2005,05,27,14,41,27.20
2005,05,27,14,42,27.30
2005,05,27,14,43,27.30
2005,05,27,14,44,27.30
2005,05,27,14,45,27.30
2005,05,27,14,46,27.30
2005,05,27,14,47,27.20
2005,05,27,14,48,27.20
2005,05,27,14,49,27.20
2005,05,27,14,50,27.10
2005,05,27,14,51,27.00
2005,05,27,14,52,26.90
2005,05,27,14,53,26.90
2005,05,27,14,54,27.10
2005,05,27,14,55,27.10
2005,05,27,14,56,27.20
2005,05,27,14,57,27.30
2005,05,27,14,58,27.30
2005,05,27,14,59,27.30
2005,05,27,15,00,27.30
2005,05,27,15,01,27.30
2005,05,27,15,02,27.30
2005,05,27,15,03,27.30
2005,05,27,15,04,27.30
2005,05,27,15,05,27.30
2005,05,27,15,06,27.30
2005,05,27,15,07,27.30
2005,05,27,15,08,27.30
2005,05,27,15,09,27.40
2005,05,27,15,10,27.60
2005,05,27,15,11,27.60
2005,05,27,15,12,27.70
2005,05,27,15,13,27.70
2005,05,27,15,14,27.80
2005,05,27,15,15,27.80
2005,05,27,15,16,27.90
2005,05,27,15,17,27.80
2005,05,27,15,18,27.90
2005,05,27,15,19,27.90
2005,05,27,15,20,28.00
2005,05,27,15,21,27.90
2005,05,27,15,22,27.80
2005,05,27,15,23,27.80
2005,05,27,15,24,27.80
2005,05,27,15,25,28.00
2005,05,27,15,26,28.00
2005,05,27,15,27,27.90
2005,05,27,15,28,27.90
2005,05,27,15,29,27.70
2005,05,27,15,30,27.50
2005,05,27,15,31,27.40
2005,05,27,15,32,27.30
2005,05,27,15,33,27.20
2005,05,27,15,34,27.10
2005,05,27,15,35,27.20
2005,05,27,15,36,27.30
2005,05,27,15,37,27.40
2005,05,27,15,38,27.60
2005,05,27,15,39,27.70
2005,05,27,15,40,27.70
2005,05,27,15,41,27.80
2005,05,27,15,42,28.00
2005,05,27,15,43,28.00
2005,05,27,15,44,27.90
2005,05,27,15,45,27.90
2005,05,27,15,46,27.80
2005,05,27,15,47,27.70
2005,05,27,15,48,27.70
2005,05,27,15,49,27.70
2005,05,27,15,50,27.70
2005,05,27,15,51,27.60
2005,05,27,15,52,27.70
2005,05,27,15,53,27.80
2005,05,27,15,54,27.90
2005,05,27,15,55,27.90
2005,05,27,15,56,27.90
2005,05,27,15,57,27.80
2005,05,27,15,58,27.80
2005,05,27,15,59,27.80
2005,05,27,16,00,27.80
2005,05,27,16,01,27.80
2005,05,27,16,02,27.80
2005,05,27,16,03,27.90
2005,05,27,16,04,27.80
2005,05,27,16,05,27.80
2005,05,27,16,06,27.70
2005,05,27,16,07,27.80
2005,05,27,16,08,27.80
2005,05,27,16,09,27.80
2005,05,27,16,10,27.80
2005,05,27,16,11,27.90
2005,05,27,16,12,27.90
2005,05,27,16,13,27.90
2005,05,27,16,14,27.90
2005,05,27,16,15,27.80
2005,05,27,16,16,27.80
2005,05,27,16,17,27.90
2005,05,27,16,18,27.90
2005,05,27,16,19,27.90
2005,05,27,16,20,27.80
2005,05,27,16,21,27.80
2005,05,27,16,22,27.80
2005,05,27,16,23,27.80
2005,05,27,16,24,27.90
2005,05,27,16,25,28.00
2005,05,27,16,26,28.00
2005,05,27,16,27,28.10
2005,05,27,16,28,28.10
2005,05,27,16,29,28.10
2005,05,27,16,30,28.20
2005,05,27,16,31,28.20
2005,05,27,16,32,28.20
2005,05,27,16,33,28.30
2005,05,27,16,34,28.30
2005,05,27,16,35,28.40
2005,05,27,16,36,28.40
2005,05,27,16,37,28.50
2005,05,27,16,38,28.50
2005,05,27,16,39,28.60
2005,05,27,16,40,28.60
2005,05,27,16,41,28.60
2005,05,27,16,42,28.60
2005,05,27,16,43,28.40
2005,05,27,16,44,28.30
2005,05,27,16,45,28.30
2005,05,27,16,46,28.20
2005,05,27,16,47,28.20
2005,05,27,16,48,28.20
2005,05,27,16,49,28.10
2005,05,27,16,50,28.10
2005,05,27,16,51,28.10
2005,05,27,16,52,28.00
2005,05,27,16,53,27.90
2005,05,27,16,54,27.90
2005,05,27,16,55,27.90
2005,05,27,16,56,28.00
2005,05,27,16,57,28.00
2005,05,27,16,58,28.00
2005,05,27,16,59,28.00
2005,05,27,17,00,28.00
2005,05,27,17,01,28.00
2005,05,27,17,02,28.20
2005,05,27,17,03,28.20
2005,05,27,17,04,28.20
2005,05,27,17,05,28.20
2005,05,27,17,06,28.20
2005,05,27,17,07,28.30
2005,05,27,17,08,28.40
2005,05,27,17,09,28.40
2005,05,27,17,10,28.50
2005,05,27,17,11,28.60
2005,05,27,17,12,28.50
2005,05,27,17,13,28.40
2005,05,27,17,14,28.40
2005,05,27,17,15,28.30
2005,05,27,17,16,28.30
2005,05,27,17,17,28.20
2005,05,27,17,18,28.20
2005,05,27,17,19,28.20
2005,05,27,17,20,28.20
2005,05,27,17,21,28.20
2005,05,27,17,22,28.10
2005,05,27,17,23,28.20
2005,05,27,17,24,28.30
2005,05,27,17,25,28.30
2005,05,27,17,26,28.30
2005,05,27,17,27,28.40
2005,05,27,17,28,28.40
2005,05,27,17,29,28.30